{"data":{"norad_id":50175,"intl_designator":"2021-125V","name":"STARLINK-3291","alt_names":[],"object_type":"PAYLOAD","status":"ACTIVE","operator":null,"country":"US","launch_date":"2021-12-18","launch_site_code":"AFWTR","launch_vehicle":null,"mission":null,"orbit_class":"UNKNOWN","rcs_meters":null,"size_class":null,"mass_kg":null,"dimensions":null,"purposes":["comms"],"wikipedia_slug":null,"has_3d_model":false,"image_url":null,"decayed_at":null,"tle_current":{"epoch":"2026-09-19T08:29:50.188704Z","epoch_age_seconds":144269,"freshness":"FRESH","line1":"1 50175U 21125V   26262.35405311  .00000271  00000+0  18666-4 0  9999","line2":"2 50175  53.1603  88.8507 0001079  98.5304 261.5821 15.35393850265987","mean_motion":15.3539385,"eccentricity":0.0001079,"inclination_deg":53.1603,"raan_deg":88.8507,"arg_perigee_deg":98.5304,"mean_anomaly_deg":261.5821,"bstar":1.8666e-5,"rev_number":26598,"period_min":93.787011065597,"perigee_km":459.01309395593,"apogee_km":460.48871016519,"semimajor_km":6837.8879020606,"source":"CELESTRAK","updated_at":"2026-09-20T09:00:39.415672Z"}}}